Increase in Institutional Shareholding

See all stocks in where Institutions increased their stake by buying more stocks. Institutions category consists of all non-individual bodies such as Mutual funds, Government of India, LIC, UTI, FII, FPI and Financial Institutions etc. Institutions increasing their shareholding in a stock is considered positive for the stock.

Shareholding
Stock Name Action ISIN Quality Score Technical Score Stock Classification Text Default Exchange Institutional holding change QoQ % Institutional holding current Qtr % Shareholding Date Previous Quarter Date
Gokaldas Exports Ltd. Detail Quote INE887G01027 46 66 Turnaround Potential NSE 27.43 36.61 2021-09-30 2021-09-30
Dish TV India Ltd. Detail Quote INE836F01026 39 69 Turnaround Potential NSE 26.21 38.76 2021-09-30 2021-09-30
Rajshree Sugars & Chemicals Ltd. Detail Quote INE562B01019 37 49 Mid-range Performer NSE 14.99 15.01 2021-09-30 2021-09-30
Abans Enterprises Ltd. Detail Quote INE365O01010 58 39 Strong Performer, Under Radar BSE 12.58 14.03 2021-09-30 2021-09-30
Aavas Financiers Ltd. Detail Quote INE216P01012 33 65 Momentum Trap NSE 9.7 49.94 2021-09-30 2021-09-30
The Ramco Cements Ltd. Detail Quote INE331A01037 56 42 Mid-range Performer NSE 9.45 43.78 2021-09-30 2021-09-30
Rolex Rings Ltd. Detail Quote INE645S01016 NA 32 NA NSE 8.39 21.96 2021-09-30 2021-09-30
Clean Science & Technology Ltd. Detail Quote INE227W01023 NA 25 NA NSE 7.84 8.61 2021-09-30 2021-09-30
CMI Ltd. Detail Quote INE981B01011 3 33 Weak Stock NSE 7.72 13.06 2021-09-30 2021-09-30
Bank of India Detail Quote INE084A01016 55 49 Mid-range Performer NSE 7.71 12.72 2021-09-30 2021-09-30
Housing and Urban Development Corporation Ltd. Detail Quote INE031A01017 67 45 Strong Performer, Under Radar NSE 6.59 8.87 2021-09-30 2021-09-30
Websol Energy Systems Ltd. Detail Quote INE855C01015 53 74 Turnaround Potential NSE 6.03 7.72 2021-09-30 2021-09-30
Karda Constructions Ltd. Detail Quote INE278R01034 76 75 Expensive Star NSE 5.6 13.89 2021-09-30 2021-09-30
National Aluminium Company Ltd. Detail Quote INE139A01034 49 74 Turnaround Potential NSE 5.46 25.55 2021-09-30 2021-09-30
Fredun Pharmaceuticals Ltd. Detail Quote INE194R01017 38 58 Expensive Performer BSE 5.32 7.2 2021-09-30 2021-09-30
Dhanuka Agritech Ltd. Detail Quote INE435G01025 83 41 Mid-range Performer NSE 5.29 19.55 2021-09-30 2021-09-30
Digjam Ltd. Detail Quote INE731U01028 NA 82 NA NSE 5.18 16.53 2021-09-30 2021-09-30
Manorama Industries Ltd. Detail Quote INE00VM01010 NA 53 NA BSE 5.09 5.66 2021-09-30 2021-09-30
Indiabulls Real Estate Ltd. Detail Quote INE069I01010 46 75 Expensive Rocket NSE 5 23.09 2021-09-30 2021-09-30
Strides Pharma Science Ltd. Detail Quote INE939A01011 58 25 Falling Comet NSE 4.97 45.38 2021-09-30 2021-09-30
Coforge Ltd. Detail Quote INE591G01017 63 65 Expensive Star NSE 4.96 39.31 2021-09-30 2021-09-30
HDFC Life Insurance Company Ltd. Detail Quote INE795G01014 31 46 Momentum Trap NSE 4.85 36.77 2021-09-30 2021-09-30
Olectra Greentech Ltd. Detail Quote INE260D01016 69 71 Expensive Star NSE 4.8 8.73 2021-09-30 2021-09-30
Cipla Ltd. Detail Quote INE059A01026 85 46 Mid-range Performer NSE 4.76 45.84 2021-09-30 2021-09-30
Sanjivani paranteral Ltd. Detail Quote INE860D01013 NA 65 NA BSE 4.73 16.5 2021-09-30 2021-09-30
Kiri Industries Ltd. Detail Quote INE415I01015 26 44 Risky Value NSE 4.71 35.73 2021-09-30 2021-09-30
Xelpmoc Design and Tech Ltd. Detail Quote INE01P501012 NA 60 NA NSE 4.48 13.5 2021-09-30 2021-09-30
Dr. Reddy's Laboratories Ltd. Detail Quote INE089A01023 56 36 Expensive Performer NSE 4.39 49.16 2021-09-30 2021-09-30
Can Fin Homes Ltd. Detail Quote INE477A01020 46 60 Expensive Rocket NSE 4.34 21.65 2021-09-30 2021-09-30
Globus Spirits Ltd. Detail Quote INE615I01010 86 70 Strong Performer, Getting Expensive NSE 4.3 6.71 2021-09-30 2021-09-30
Stylam Industries Ltd. Detail Quote INE239C01020 79 17 Falling Comet NSE 4.14 13.73 2021-09-30 2021-09-30
Quess Corp Ltd. Detail Quote INE615P01015 74 62 Expensive Star NSE 4.14 35.9 2021-09-30 2021-09-30
VIP Industries Ltd. Detail Quote INE054A01027 35 62 Expensive Rocket NSE 4.09 27.55 2021-09-30 2021-09-30
Canara Bank Detail Quote INE476A01014 56 71 Strong Performer NSE 3.97 20.24 2021-09-30 2021-09-30
Nelco Ltd. Detail Quote INE045B01015 69 71 Expensive Star NSE 3.96 7.33 2021-09-30 2021-09-30
Hindustan Copper Ltd. Detail Quote INE531E01026 69 52 Expensive Performer NSE 3.92 18.09 2021-09-30 2021-09-30
Alan Scott Industries Ltd. Detail Quote INE273F01022 NA NA NA BSE 3.9 24.02 2021-09-30 2021-09-30
Equitas Holdings Ltd. Detail Quote INE988K01017 44 71 Turnaround Potential NSE 3.87 64.84 2021-09-30 2021-09-30
NMDC Ltd. Detail Quote INE584A01023 74 41 Strong Performer, Under Radar NSE 3.73 28.68 2021-09-30 2021-09-30
SBI Cards and Payment Services Ltd. Detail Quote INE018E01016 46 67 Expensive Rocket NSE 3.61 22.77 2021-09-30 2021-09-30
Wendt India Ltd. Detail Quote INE274C01019 76 69 Expensive Star NSE 3.5 6.68 2021-09-30 2021-09-30
IIFL Finance Ltd. Detail Quote INE530B01024 58 66 Strong Performer, Getting Expensive NSE 3.41 25.45 2021-09-30 2021-09-30
Cera Sanitaryware Ltd. Detail Quote INE739E01017 76 62 Expensive Star NSE 3.33 29.78 2021-09-30 2021-09-30
Trent Ltd. Detail Quote INE849A01020 46 61 Expensive Rocket NSE 3.25 41.29 2021-09-30 2021-09-30
Dodla Dairy Ltd. Detail Quote INE021O01019 65 34 Falling Comet NSE 3.13 21.8 2021-09-30 2021-09-30
Banswara Syntex Ltd. Detail Quote INE629D01012 65 71 Strong Performer NSE 3.08 7.38 2021-09-30 2021-09-30
Tata Power Company Ltd. Detail Quote INE245A01021 58 80 Strong Performer, Getting Expensive NSE 3.07 31.5 2021-09-30 2021-09-30
Minda Industries Ltd. Detail Quote INE405E01023 67 61 Expensive Star NSE 3.05 22.93 2021-09-30 2021-09-30
HEG Ltd. Detail Quote INE545A01016 55 45 Expensive Performer NSE 3.04 21.79 2021-09-30 2021-09-30
Vikas Ecotech Ltd. Detail Quote INE806A01020 37 35 Mid-range Performer NSE 3.02 3.32 2021-09-30 2021-09-30
Deccan Cements Ltd. Detail Quote INE583C01021 97 63 Strong Performer NSE 3 6.67 2021-09-30 2021-09-30
Action Construction Equipment Ltd. Detail Quote INE731H01025 86 54 Mid-range Performer NSE 2.98 9.22 2021-09-30 2021-09-30
Jagatjit Industries Ltd. Detail Quote INE574A01016 56 72 Strong Performer, Getting Expensive BSE 2.95 10.01 2021-09-30 2021-09-30
Ashika Credit Capital Ltd. Detail Quote INE094B01013 NA 42 NA BSE 2.9 8.37 2021-09-30 2021-09-30
Voltas Ltd. Detail Quote INE226A01021 69 58 Expensive Performer NSE 2.8 54.15 2021-09-30 2021-09-30
Sankhya Infotech Ltd. Detail Quote INE877A01013 NA 56 NA BSE 2.78 8.59 2021-09-30 2021-09-30
Granules India Ltd. Detail Quote INE101D01020 65 33 Falling Comet NSE 2.75 23.96 2021-09-30 2021-09-30
Bodhtree Consulting Ltd. Detail Quote INE104F01011 55 50 Mid-range Performer BSE 2.64 12.72 2021-09-30 2021-09-30
Godrej Consumer Products Ltd. Detail Quote INE102D01028 69 51 Expensive Performer NSE 2.61 30.8 2021-09-30 2021-09-30
DFM Foods Ltd. Detail Quote INE456C01020 63 34 Expensive Performer NSE 2.57 3.77 2021-09-30 2021-09-30
J B Chemicals & Pharmaceuticals Ltd. Detail Quote INE572A01028 74 54 Expensive Performer NSE 2.48 23.98 2021-09-30 2021-09-30
Amber Enterprises India Ltd. Detail Quote INE371P01015 69 56 Expensive Performer NSE 2.47 37.82 2021-09-30 2021-09-30
Barbeque-Nation Hospitality Ltd. Detail Quote INE382M01027 24 50 Momentum Trap NSE 2.47 28.13 2021-09-30 2021-09-30
Birlasoft Ltd. Detail Quote INE836A01035 74 60 Expensive Star NSE 2.44 39.34 2021-09-30 2021-09-30
Kellton Tech Solutions Ltd. Detail Quote INE164B01022 76 29 Value Stock, Under Radar NSE 2.37 3.24 2021-09-30 2021-09-30
Escorts Ltd. Detail Quote INE042A01014 78 58 Mid-range Performer NSE 2.25 29.16 2021-09-30 2021-09-30
WABCO India Ltd. Detail Quote INE342J01019 65 67 Expensive Star NSE 2.24 16.91 2021-09-30 2021-09-30
Hind Rectifiers Ltd. Detail Quote INE835D01023 72 53 Mid-range Performer NSE 2.19 4.98 2021-09-30 2021-09-30
Ahluwalia Contracts (India) Ltd. Detail Quote INE758C01029 72 56 Mid-range Performer NSE 2.18 40.88 2021-09-30 2021-09-30
SKF India Ltd. Detail Quote INE640A01023 86 62 Expensive Star NSE 2.18 35.19 2021-09-30 2021-09-30
Ashiana Housing Ltd. Detail Quote INE365D01021 67 53 Expensive Performer NSE 2.14 13 2021-09-30 2021-09-30
GMR Infrastructure Ltd. Detail Quote INE776C01039 30 66 Momentum Trap NSE 2.09 29.18 2021-09-30 2021-09-30
Jindal Saw Ltd. Detail Quote INE324A01024 62 48 Strong Performer, Under Radar NSE 2.07 13.28 2021-09-30 2021-09-30
Arvind Fashions Ltd. Detail Quote INE955V01021 21 67 Momentum Trap NSE 2.07 18.69 2021-09-30 2021-09-30
Hikal Ltd. Detail Quote INE475B01022 95 56 Expensive Performer NSE 2.05 6.95 2021-09-30 2021-09-30
Multi Commodity Exchange of India Ltd. Detail Quote INE745G01035 69 58 Expensive Performer NSE 1.94 77.9 2021-09-30 2021-09-30
Varun Beverages Ltd. Detail Quote INE200M01013 56 53 Expensive Performer NSE 1.94 28.5 2021-09-30 2021-09-30
Laurus Labs Ltd. Detail Quote INE947Q01028 70 45 Expensive Performer NSE 1.94 27.63 2021-09-30 2021-09-30
Apex Frozen Foods Ltd. Detail Quote INE346W01013 47 45 Mid-range Performer NSE 1.94 7.64 2021-09-30 2021-09-30
Shaily Engineering Plastics Ltd. Detail Quote INE151G01010 65 64 Expensive Star BSE 1.91 15.72 2021-09-30 2021-09-30
Tamilnadu Petroproducts Ltd. Detail Quote INE148A01019 76 63 Strong Performer NSE 1.9 7.16 2021-09-30 2021-09-30
Accelya Solutions India Ltd. Detail Quote INE793A01012 55 61 Expensive Rocket NSE 1.88 2.64 2021-09-30 2021-09-30
Sterling and Wilson Solar Ltd. Detail Quote INE00M201021 39 62 Expensive Rocket NSE 1.88 12.18 2021-09-30 2021-09-30
Vesuvius India Ltd. Detail Quote INE386A01015 53 50 Expensive Performer NSE 1.85 25.8 2021-09-30 2021-09-30
Balaji Amines Ltd. Detail Quote INE050E01027 90 58 Expensive Performer NSE 1.84 4.49 2021-09-30 2021-09-30
Rain Industries Ltd. Detail Quote INE855B01025 78 59 Strong Performer, Under Radar NSE 1.84 12.54 2021-09-30 2021-09-30
Tata Chemicals Ltd. Detail Quote INE092A01019 53 61 Turnaround Potential NSE 1.79 34.5 2021-09-30 2021-09-30
Neuland Laboratories Ltd. Detail Quote INE794A01010 74 46 Mid-range Performer NSE 1.75 21.68 2021-09-30 2021-09-30
Nippon Life India Asset Management Ltd. Detail Quote INE298J01013 65 60 Expensive Performer NSE 1.74 15.41 2021-09-30 2021-09-30
Thirumalai Chemicals Ltd. Detail Quote INE338A01024 86 69 Strong Performer NSE 1.72 2.77 2021-09-30 2021-09-30
HFCL Ltd. Detail Quote INE548A01028 40 66 Turnaround Potential NSE 1.71 4.59 2021-09-30 2021-09-30
Man Infraconstruction Ltd. Detail Quote INE949H01023 88 70 Expensive Star NSE 1.69 1.73 2021-09-30 2021-09-30
Indostar Capital Finance Ltd. Detail Quote INE896L01010 31 41 Await Turnaround NSE 1.66 3.81 2021-09-30 2021-09-30
Jamna Auto Industries Ltd. Detail Quote INE039C01032 83 59 Mid-range Performer NSE 1.65 18.92 2021-09-30 2021-09-30
S & S Power Switchgear Ltd. Detail Quote INE902B01017 NA 70 NA NSE 1.64 2.6 2021-09-30 2021-09-30
Andhra Cements Ltd. Detail Quote INE666E01012 NA 59 NA NSE 1.63 15.42 2021-09-30 2021-09-30
Nazara Technologies Ltd. Detail Quote INE418L01021 74 41 Expensive Performer NSE 1.62 14.12 2021-09-30 2021-09-30
India Glycols Ltd. Detail Quote INE560A01015 58 66 Strong Performer NSE 1.61 3.01 2021-09-30 2021-09-30
Mirza International Ltd. Detail Quote INE771A01026 69 68 Strong Performer NSE 1.61 1.69 2021-09-30 2021-09-30
Railtel Corporation of India Ltd. Detail Quote INE0DD101019 74 44 Mid-range Performer NSE 1.61 8.56 2021-09-30 2021-09-30
Praj Industries Ltd. Detail Quote INE074A01025 58 52 Expensive Performer NSE 1.59 21.84 2021-09-30 2021-09-30
Dhani Services Ltd. Detail Quote INE274G01010 37 52 Expensive Performer NSE 1.56 30.27 2021-09-30 2021-09-30
Saksoft Ltd. Detail Quote INE667G01015 60 69 Strong Performer, Getting Expensive NSE 1.56 3.75 2021-09-30 2021-09-30
Bank of Maharashtra Detail Quote INE457A01014 56 51 Strong Performer, Under Radar NSE 1.55 3.82 2021-09-30 2021-09-30
Jetking Infotrain Ltd. Detail Quote INE919C01019 NA 34 NA BSE 1.54 2.91 2021-09-30 2021-09-30
Greenpanel Industries Ltd. Detail Quote INE08ZM01014 97 64 Strong Performer, Getting Expensive NSE 1.54 25.67 2021-09-30 2021-09-30
PPAP Automotive Ltd. Detail Quote INE095I01015 67 56 Strong Performer, Under Radar NSE 1.53 2.59 2021-09-30 2021-09-30
Sreeleathers Ltd. Detail Quote INE099F01013 53 49 Mid-range Performer NSE 1.53 5.24 2021-09-30 2021-09-30
Mold-Tek Packaging Ltd. Detail Quote INE893J01029 72 65 Expensive Star NSE 1.53 24.14 2021-09-30 2021-09-30
Manappuram Finance Ltd. Detail Quote INE522D01027 56 66 Strong Performer, Getting Expensive NSE 1.52 48.36 2021-09-30 2021-09-30
KNR Constructions Ltd. Detail Quote INE634I01029 40 67 Turnaround Potential NSE 1.51 38.15 2021-09-30 2021-09-30
Fineotex Chemical Ltd. Detail Quote INE045J01026 67 57 Expensive Performer NSE 1.48 7.63 2021-09-30 2021-09-30
Kansai Nerolac Paints Ltd. Detail Quote INE531A01024 67 44 Expensive Performer NSE 1.45 16.74 2021-09-30 2021-09-30
Nava Bharat Ventures Ltd. Detail Quote INE725A01022 78 63 Strong Performer NSE 1.45 5.1 2021-09-30 2021-09-30
RSWM Ltd. Detail Quote INE611A01016 78 67 Strong Performer NSE 1.44 2.58 2021-09-30 2021-09-30
Spandana Sphoorty Financial Ltd. Detail Quote INE572J01011 26 33 Weak Stock NSE 1.44 16.98 2021-09-30 2021-09-30
JK Tyre & Industries Ltd. Detail Quote INE573A01042 85 68 Strong Performer NSE 1.42 9.07 2021-09-30 2021-09-30
Mangalore Chemicals & Fertilizers Ltd. Detail Quote INE558B01017 83 36 Strong Performer, Under Radar NSE 1.41 2.83 2021-09-30 2021-09-30
PNC Infratech Ltd. Detail Quote INE195J01029 46 62 Turnaround Potential NSE 1.41 39.91 2021-09-30 2021-09-30
Century Enka Ltd. Detail Quote INE485A01015 70 64 Strong Performer NSE 1.4 10.01 2021-09-30 2021-09-30
NHPC Ltd. Detail Quote INE848E01016 86 68 Strong Performer NSE 1.4 20.87 2021-09-30 2021-09-30
Orient Electric Ltd. Detail Quote INE142Z01019 79 47 Expensive Performer NSE 1.37 32.52 2021-09-30 2021-09-30
Shahlon Silk Industries Ltd. Detail Quote INE052001018 63 50 Strong Performer, Under Radar BSE 1.36 1.42 2021-09-30 2021-09-30
Mangalam Cement Ltd. Detail Quote INE347A01017 86 52 Strong Performer, Under Radar NSE 1.34 9.57 2021-09-30 2021-09-30
Tatva Chintan Pharma Chem Ltd. Detail Quote INE0GK401011 NA 22 NA NSE 1.32 10.89 2021-09-30 2021-09-30
Birla Corporation Ltd. Detail Quote INE340A01012 67 63 Strong Performer NSE 1.31 19.03 2021-09-30 2021-09-30
Astec Lifesciences Ltd. Detail Quote INE563J01010 28 46 Momentum Trap NSE 1.3 12.42 2021-09-30 2021-09-30
BASF India Ltd. Detail Quote INE373A01013 86 62 Strong Performer, Getting Expensive NSE 1.29 8.85 2021-09-30 2021-09-30
Vimta Labs Ltd. Detail Quote INE579C01029 86 57 Mid-range Performer NSE 1.29 1.4 2021-09-30 2021-09-30
Alkyl Amines Chemicals Ltd. Detail Quote INE150B01039 56 51 Expensive Performer NSE 1.27 3.41 2021-09-30 2021-09-30
Gati Ltd. Detail Quote INE152B01027 33 49 Momentum Trap NSE 1.27 3.93 2021-09-30 2021-09-30
Regency Ceramics Ltd. Detail Quote INE277C01012 NA 52 NA NSE 1.27 1.59 2021-09-30 2021-09-30
Saregama India Ltd. Detail Quote INE979A01017 88 77 Expensive Star NSE 1.27 12.36 2021-09-30 2021-09-30
Astral Ltd. Detail Quote INE006I01046 86 61 Expensive Star NSE 1.26 32.04 2021-09-30 2021-09-30
Century Plyboards (India) Ltd. Detail Quote INE348B01021 86 73 Expensive Star NSE 1.26 18.21 2021-09-30 2021-09-30
Sonata Software Ltd. Detail Quote INE269A01021 76 52 Expensive Performer NSE 1.26 29.54 2021-09-30 2021-09-30
Vadilal Industries Ltd. Detail Quote INE694D01016 NA 66 NA NSE 1.25 1.26 2021-09-30 2021-09-30
VST Tillers Tractors Ltd. Detail Quote INE764D01017 85 65 Strong Performer, Getting Expensive NSE 1.25 20.11 2021-09-30 2021-09-30
Titagarh Wagons Ltd. Detail Quote INE615H01020 42 68 Turnaround Potential NSE 1.23 14.71 2021-09-30 2021-09-30
Ratnamani Metals & Tubes Ltd. Detail Quote INE703B01027 76 65 Expensive Star NSE 1.2 27.19 2021-09-30 2021-09-30
IndiaMART InterMESH Ltd. Detail Quote INE933S01016 65 52 Expensive Performer NSE 1.2 32.59 2021-09-30 2021-09-30
Rico Auto Industries Ltd. Detail Quote INE209B01025 40 45 Mid-range Performer NSE 1.19 2.18 2021-09-30 2021-09-30
Aarti Industries Ltd. Detail Quote INE769A01020 51 61 Expensive Rocket NSE 1.18 26.62 2021-09-30 2021-09-30
Chambal Fertilisers & Chemicals Ltd. Detail Quote INE085A01013 99 61 Strong Performer NSE 1.15 24.6 2021-09-30 2021-09-30
Godrej Properties Ltd. Detail Quote INE484J01027 19 68 Momentum Trap NSE 1.15 34.35 2021-09-30 2021-09-30
KEI Industries Ltd. Detail Quote INE878B01027 69 66 Expensive Star NSE 1.15 45.15 2021-09-30 2021-09-30
Va Tech Wabag Ltd. Detail Quote INE956G01038 67 48 Strong Performer, Under Radar NSE 1.15 20.84 2021-09-30 2021-09-30
Birla Tyres Ltd. Detail Quote INE0AEJ01013 19 43 Momentum Trap NSE 1.15 2.23 2021-09-30 2021-09-30
CG Power and Industrial Solutions Ltd. Detail Quote INE067A01029 23 77 Momentum Trap NSE 1.14 18.26 2021-09-30 2021-09-30
Panama Petrochem Ltd. Detail Quote INE305C01029 88 51 Strong Performer, Under Radar NSE 1.11 3.37 2021-09-30 2021-09-30
Sudarshan Chemical Industries Ltd. Detail Quote INE659A01023 67 43 Expensive Performer NSE 1.1 19.16 2021-09-30 2021-09-30
Aditya Birla Fashion and Retail Ltd. Detail Quote INE647O01011 28 63 Momentum Trap NSE 1.08 32.01 2021-09-30 2021-09-30
Bharat Electronics Ltd. Detail Quote INE263A01024 67 62 Strong Performer, Getting Expensive NSE 1.05 44.06 2021-09-30 2021-09-30
Aarey Drugs & Pharmaceuticals Ltd. Detail Quote INE198H01019 55 15 Falling Comet NSE 1.05 4.47 2021-09-30 2021-09-30
Fairchem Organics Ltd. Detail Quote INE0DNW01011 78 59 Expensive Performer NSE 1.05 1.89 2021-09-30 2021-09-30
Butterfly Gandhimathi Appliances Ltd. Detail Quote INE295F01017 97 62 Strong Performer, Getting Expensive NSE 1.04 9.75 2021-09-30 2021-09-30
FIEM Industries Ltd. Detail Quote INE737H01014 79 66 Strong Performer, Getting Expensive NSE 1.04 10.09 2021-09-30 2021-09-30
JSW Energy Ltd. Detail Quote INE121E01018 63 71 Expensive Star NSE 1.04 13.41 2021-09-30 2021-09-30
Oil India Ltd. Detail Quote INE274J01014 72 67 Strong Performer NSE 1.03 28.07 2021-09-30 2021-09-30
TeamLease Services Ltd. Detail Quote INE985S01024 81 63 Expensive Star NSE 1.02 55.62 2021-09-30 2021-09-30
Ambika Cotton Mills Ltd. Detail Quote INE540G01014 94 67 Strong Performer NSE 1.01 1.14 2021-09-30 2021-09-30
Graphite India Ltd. Detail Quote INE371A01025 49 37 Mid-range Performer NSE 1.01 17.36 2021-09-30 2021-09-30
Gujarat State Petronet Ltd. Detail Quote INE246F01010 56 54 Strong Performer, Under Radar NSE 1 48.48 2021-09-30 2021-09-30
Hatsun Agro Products Ltd. Detail Quote INE473B01035 70 65 Expensive Star NSE 1 11.21 2021-09-30 2021-09-30
Bharat Heavy Electricals Ltd. Detail Quote INE257A01026 31 69 Momentum Trap NSE 0.98 18.05 2021-09-30 2021-09-30
Bayer Cropscience Ltd. Detail Quote INE462A01022 63 38 Expensive Performer NSE 0.97 15.29 2021-09-30 2021-09-30
Jai Balaji Industries Ltd. Detail Quote INE091G01018 37 46 Mid-range Performer NSE 0.97 3.74 2021-09-30 2021-09-30
Prime Securities Ltd. Detail Quote INE032B01021 74 79 Strong Performer, Getting Expensive NSE 0.97 3.92 2021-09-30 2021-09-30
Heritage Foods Ltd. Detail Quote INE978A01027 95 68 Strong Performer, Getting Expensive NSE 0.96 17.73 2021-09-30 2021-09-30
GMM Pfaudler Ltd. Detail Quote INE541A01023 46 64 Expensive Rocket NSE 0.96 15.96 2021-09-30 2021-09-30
Vishwaraj Sugar Industries Ltd. Detail Quote INE430N01022 55 75 Turnaround Potential NSE 0.96 3.62 2021-09-30 2021-09-30
Bharat Forge Ltd. Detail Quote INE465A01025 47 66 Expensive Rocket NSE 0.95 38.54 2021-09-30 2021-09-30
PSP Projects Ltd. Detail Quote INE488V01015 63 59 Mid-range Performer NSE 0.95 6.21 2021-09-30 2021-09-30
Aster DM Healthcare Ltd. Detail Quote INE914M01019 72 52 Mid-range Performer NSE 0.94 19.27 2021-09-30 2021-09-30
Manali Petrochemicals Ltd. Detail Quote INE201A01024 55 66 Turnaround Potential NSE 0.93 1.85 2021-09-30 2021-09-30
S P Apparels Ltd. Detail Quote INE212I01016 79 66 Strong Performer NSE 0.93 15.72 2021-09-30 2021-09-30
Dalmia Bharat Ltd. Detail Quote INE00R701025 95 50 Mid-range Performer NSE 0.92 19.85 2021-09-30 2021-09-30
Max Healthcare Institute Ltd. Detail Quote INE027H01010 42 54 Expensive Performer NSE 0.92 22.93 2021-09-30 2021-09-30
LG Balakrishnan & Bros Ltd. Detail Quote INE337A01034 86 72 Strong Performer NSE 0.91 17.86 2021-09-30 2021-09-30
Surya Roshni Ltd. Detail Quote INE335A01012 92 68 Strong Performer NSE 0.89 4.11 2021-09-30 2021-09-30
Tata Motors Ltd. Detail Quote INE155A01022 24 74 Momentum Trap NSE 0.89 26.8 2021-09-30 2021-09-30
The Anup Engineering Ltd. Detail Quote INE294Z01018 85 52 Mid-range Performer NSE 0.88 14.23 2021-09-30 2021-09-30
MindTree Ltd. Detail Quote INE018I01017 76 68 Expensive Star NSE 0.86 25.64 2021-06-30 2021-09-30
Bharat Gears Ltd. Detail Quote INE561C01019 58 75 Strong Performer NSE 0.85 0.89 2021-09-30 2021-09-30
Timken India Ltd. Detail Quote INE325A01013 46 60 Expensive Rocket NSE 0.85 16.38 2021-09-30 2021-09-30
Poly Medicure Ltd. Detail Quote INE205C01021 60 41 Expensive Performer NSE 0.84 16.55 2021-09-30 2021-09-30
Bata India Ltd. Detail Quote INE176A01028 46 71 Expensive Rocket NSE 0.83 33.36 2021-09-30 2021-09-30
Titan Company Ltd. Detail Quote INE280A01028 60 63 Expensive Star NSE 0.83 29.32 2021-09-30 2021-09-30
HDFC Asset Management Company Ltd. Detail Quote INE127D01025 56 46 Expensive Performer NSE 0.82 16.53 2021-09-30 2021-09-30
JMC Projects (India) Ltd. Detail Quote INE890A01024 49 67 Turnaround Potential NSE 0.79 17.69 2021-09-30 2021-09-30
ICICI Securities Ltd. Detail Quote INE763G01038 47 64 Expensive Rocket NSE 0.79 13.8 2021-09-30 2021-09-30
Spencer's Retail Ltd. Detail Quote INE020801028 19 65 Momentum Trap NSE 0.79 8.93 2021-09-30 2021-09-30
Ipca Laboratories Ltd. Detail Quote INE571A01020 70 48 Expensive Performer NSE 0.78 43.92 2021-09-30 2021-09-30
Nahar Spinning Mills Ltd. Detail Quote INE290A01027 60 77 Strong Performer NSE 0.78 0.87 2021-09-30 2021-09-30
Monte Carlo Fashions Ltd. Detail Quote INE950M01013 86 71 Strong Performer NSE 0.78 1.75 2021-09-30 2021-09-30
Reliance Power Ltd. Detail Quote INE614G01033 85 68 Strong Performer NSE 0.77 6.81 2021-09-30 2021-09-30
Subros Ltd. Detail Quote INE287B01021 70 67 Strong Performer, Getting Expensive NSE 0.77 12.25 2021-09-30 2021-09-30
MPDL Ltd. Detail Quote INE493H01014 NA 51 NA BSE 0.77 5.87 2021-09-30 2021-09-30
Best Agrolife Ltd. Detail Quote INE052T01013 51 55 Expensive Performer NSE 0.77 11.78 2021-09-30 2021-09-30
IIFL Wealth Management Ltd. Detail Quote INE466L01020 85 68 Expensive Star NSE 0.77 27.05 2021-09-30 2021-09-30